Regional Weather Roundup
Issued by NWS

Home | Current Version | Previous Version | Graphics & Text | Print | Product List | Glossary On
Versions: 1 2 3 4 5 6 7 8 9 10 11 12 13 14 15 16 17 18 19 20 21 22 23 24 25 26 27 28 29 30 31 32 33 34 35 36 37 38 39 40 41 42 43 44 45 46 47 48 49 50
000
ASUS43 KMPX 271910
RWRMN
WEATHER ROUNDUP FOR MINNESOTA
NATIONAL WEATHER SERVICE TWIN CITIES/CHANHASSEN MN
200 PM CDT THU AUG 27 2015


NOTE: "FAIR" INDICATES FEW OR NO CLOUDS BELOW 12,000 FEET WITH NO
SIGNIFICANT WEATHER AND/OR OBSTRUCTIONS TO VISIBILITY. N/A MEANS
CURRENT SKY AND/OR WEATHER CONDITIONS ARE NOT AVAILABLE.

MNZ060>063-068>070-272000-
   Twin Cities Metro

CITY           SKY/WX    TMP DP  RH WIND       PRES   REMARKS
TWIN CITIES    CLOUDY    72  58  61 SE9       30.04F
ST PAUL        PTSUNNY   72  59  63 S14       30.05F
CRYSTAL        PTSUNNY   75  58  55 SE10      30.02F
BLAINE         PTSUNNY   75  57  53 S12       30.04S
LAKEVILLE      CLOUDY    72  61  68 SE7       30.04F
EDEN PRAIRIE   CLOUDY    73  60  63 SE10      30.02F
SOUTH ST PAUL  PTSUNNY   73  57  58 SE10      30.05F
LAKE ELMO      CLOUDY    72  59  64 S8        30.06F
$$
MNZ001>005-007-008-013>017-022>024-027-028-272000-
   Northwest Minnesota

CITY           SKY/WX    TMP DP  RH WIND       PRES   REMARKS
BEMIDJI        MOSUNNY   73  61  66 S7        29.99S
HALLOCK        SUNNY     77  63  61 S10       29.93F
ROSEAU         SUNNY     75  57  53 SE3       29.96F
WARROAD        SUNNY     70  63  78 NE9       29.97F
THIEF RVR FALL MOSUNNY  N/A N/A N/A S7        29.96S
CROOKSTON      PTSUNNY   75  63  64 S8        29.96S
FOSSTON        PTSUNNY   75  61  60 S6        29.98F
DETROIT LAKES  MOSUNNY   73  63  68 SW9       29.99F
MOORHEAD       MOSUNNY   75  64  69 S5        29.96F
PARK RAPIDS    PTSUNNY   75  60  59 S10       29.98F
MAHNOMEN       MOCLDY    75  63  66 S6        29.97F
$$
MNZ006-009>011-018-025>026-272000-
   North Central Minnesota

CITY           SKY/WX    TMP DP  RH WIND       PRES   REMARKS
BAUDETTE       MOSUNNY   74  56  53 S5        29.98F
FLAG ISLAND    SUNNY     66  57  72 S6        29.96F
INTL FALLS     SUNNY     74  57  55 VRB6      29.99F
WASKISH        SUNNY     75  59  57 S3        29.98F
BIG FORK       SUNNY     75  57  53 S10G16    30.01S
LONGVILLE      MOSUNNY   73  61  64 S9        29.99F
GRAND RAPIDS     N/A     72  55  56 SE12      30.01F
CRANE LAKE     SUNNY     72  52  49 S7        30.02F
ORR            SUNNY     75  54  46 SE6       29.99F
COOK           SUNNY     73  57  56 SE7       30.02F
WALKER         FAIR      72  61  67 SE5       29.98F
$$
MNZ012-019>021-037-272000-
   Northeast Minnesota

CITY           SKY/WX    TMP DP  RH WIND       PRES   REMARKS
DULUTH         PTSUNNY   70  57  63 S9        30.05F
ELY            SUNNY     72  52  49 S9        30.03F
HIBBING        PTSUNNY   73  57  57 VRB6      30.02F
EVELETH        MOSUNNY   72  54  53 S10       30.04F
DULUTH HARBOR  PTSUNNY   61  54  77 E5        30.06F
TWO HARBORS    SUNNY     75  61  60 SW8       30.04F
SILVER BAY     SUNNY     72  54  53 S7        30.04F
GRAND MARAIS     N/A     60  52  74 CALM      30.07F
G MARAIS ARPRT SUNNY     66  45  45 S6        30.09F
$$
MNZ029>031-032-039>041-046>048-054>057-064-272000-
   West Central Minnesota

CITY           SKY/WX    TMP DP  RH WIND       PRES   REMARKS
FERGUS FALLS   MOSUNNY   73  64  73 S3        29.96F
WHEATON        PTSUNNY   73  64  73 SE7       29.97S
MORRIS         FAIR      73  64  73 S13       29.98R
ALEXANDRIA     SUNNY     74  63  68 VRB3      29.99F
ELBOW LAKE     FAIR      73  64  74 S5        29.97S
WADENA         MOSUNNY   73  63  68 S7        29.99S
GLENWOOD       MOSUNNY   75  63  64 S9        29.99S
APPLETON       PTSUNNY   73  63  68 S7        29.98F
BENSON         PTSUNNY   72  61  68 S10       29.99R
ORTONVILLE     PTSUNNY   72  63  73 SE6       29.97F
MADISON        CLOUDY    70  64  83 SE7       29.98F
WILLMAR        FAIR      72  63  73 SE12G17   30.00F
$$
MNZ033>034-036-042>043-049>051-058-059-272000-
   Central Minnesota

CITY           SKY/WX    TMP DP  RH WIND       PRES   REMARKS
ST CLOUD       MOSUNNY   75  61  61 S15       30.00F
SAUK CENTRE    FAIR      73  63  69 SE7       29.99F
PAYNESVILLE    PTSUNNY   70  60  70 SE9       30.02S
AITKIN         PTSUNNY   73  61  64 SE10G16   30.01S
PINE RIVER     MOSUNNY   73  63  68 SE13      30.03S
BRAINERD       CLOUDY    74  61  63 S12       30.00F
STAPLES        MOSUNNY   73  61  64 SE7       29.99F
LONG PRAIRIE   FAIR      73  63  68 SE8       30.00S
LITTLE FALLS   MOSUNNY   75  61  60 SE10      30.00F
LITCHFIELD     CLOUDY    73  64  73 S5        30.03R
BUFFALO        PTSUNNY   73  58  61 SE8       30.03F
MAPLE LAKE     PTSUNNY   74  64  70 S9        30.03S
$$
MNZ037-044-045-052-053-272000-
   East Central Minnesota

CITY           SKY/WX    TMP DP  RH WIND       PRES   REMARKS
PRINCETON      MOSUNNY   77  61  57 SE13      30.02F
MORA           MOSUNNY   70  55  60 S9        30.05S
CAMBRIDGE      PTSUNNY   77  59  53 S10       30.02S
RUSH CITY      CLOUDY    72  60  64 SE6       30.04F
MOOSE LAKE     PTSUNNY   72  55  56 S7        30.02F
HINCKLEY       FAIR      73  59  60 SE12      30.05S
CLOQUET        PTSUNNY   72  55  56 S8        30.04F
MCGREGOR       PTSUNNY   72  59  64 S9G16     30.03F
$$
MNZ071>073-080-081-089-090-097-098-272000-
   Southwest Minnesota

CITY           SKY/WX    TMP DP  RH WIND       PRES   REMARKS
MONTEVIDEO     CLOUDY    72  66  83 SW3       30.01R
GRANITE FALLS  CLOUDY    67  63  88 SE14      29.98F
CANBY          CLOUDY    72  66  83 S14       29.99S
MARSHALL       CLOUDY    66  61  82 SW8       30.03S
REDWOOD FALLS  CLOUDY    66  61  84 S8        30.01F
OLIVIA         LGT RAIN  68  63  83 CALM      30.01F
PIPESTONE      CLOUDY    75  66  73 SW9       30.02S
WINDOM         CLOUDY    72  61  68 CALM      30.04R
WORTHINGTON    CLOUDY    73  63  68 SW14      30.02F
JACKSON        CLOUDY    70  63  78 S7        30.04S
TRACY          TSTM      66  64  93 W8        30.02F
SLAYTON        CLOUDY    72  65  81 CALM      30.04S THUNDER
$$
MNZ065>067-074>077-082>085-091>093-272000-
   South Central Minnesota

CITY           SKY/WX    TMP DP  RH WIND       PRES   REMARKS
MANKATO        CLOUDY    72  57  60 S12       30.03S
NEW ULM        CLOUDY    68  59  73 S8        30.04R
ST JAMES       CLOUDY    70  63  78 SE3       30.05R
FAIRMONT       CLOUDY    70  55  60 S13       30.03S
GLENCOE        CLOUDY    74  63  69 CALM      30.01F
FARIBAULT      CLOUDY    73  61  64 SE13      30.05S
OWATONNA       CLOUDY    75  59  57 S12       30.06R
WASECA         CLOUDY    72  57  60 SE13      30.05F
ALBERT LEA     CLOUDY    72  57  60 SW8       30.08R
$$
MNZ078>079-086>088-094>096-272000-
   Southeast Minnesota

CITY           SKY/WX    TMP DP  RH WIND       PRES   REMARKS
ROCHESTER      PTSUNNY   73  60  63 S13       30.08F
RED WING       PTSUNNY   73  57  56 S8        30.05F
STANTON        CLOUDY    74  59  59 S7        30.04S
DODGE CENTER   PTSUNNY   73  59  60 S13       30.06F
WINONA         PTSUNNY   73  57  56 S6        30.09S
AUSTIN         PTSUNNY   73  57  56 S10       30.06F
PRESTON        PTSUNNY   72  57  58 S12G20    30.09F
$$
ABBREVIATIONS USED IN REMARKS
   TC - TEMPERATURES IN CELSIUS
  WCI - WIND CHILL INDEX
   HX - HEAT INDEX
  VSB - VISIBILITY
$$



USA.gov is the U.S. government's official web portal to all federal, state and local government web resources and services.